CW3518 Weather Reports


time (UTC)temp
C
wind
direction
speed
KPH
gust
KPH
rain 1hr
cm
rain 24hr
cm
rain mn
cm
humidity
%
barometer
mb
20260504221000 27 187 27.4 40.2 0.00 0.00 0.00 54 1005.9
20260504220030 27 172 29.0 35.4 0.00 0.00 0.00 54 1006.1
20260504215500 27 194 27.4 35.4 0.00 0.00 0.00 53 1006.0
20260504215000 27 197 32.2 37.0 0.00 0.00 0.00 53 1006.1
20260504214500 27 161 33.8 40.2 0.00 0.00 0.00 53 1006.1
20260504214000 27 178 40.2 40.2 0.00 0.00 0.00 53 1006.1
20260504213530 27 171 17.7 33.8 0.00 0.00 0.00 55 1006.5
20260504213000 27 177 33.8 33.8 0.00 0.00 0.00 54 1006.4
20260504212500 27 189 19.3 33.8 0.00 0.00 0.00 55 1006.7
20260504212000 27 180 24.1 33.8 0.00 0.00 0.00 55 1006.8
20260504210500 26 206 25.7 35.4 0.00 0.00 0.00 55 1007.0
20260504210031 27 181 24.1 35.4 0.00 0.00 0.00 55 1007.1
20260504205502 27 185 20.9 33.8 0.00 0.00 0.00 55 1007.1
20260504205030 26 164 30.6 32.2 0.00 0.00 0.00 55 1007.2
20260504204500 26 188 22.5 37.0 0.00 0.00 0.00 55 1007.3
20260504204031 26 201 29.0 37.0 0.00 0.00 0.00 55 1007.5
20260504203500 26 197 24.1 37.0 0.00 0.00 0.00 56 1007.6
20260504202500 26 178 20.9 35.4 0.00 0.00 0.00 55 1007.9
20260504202000 26 209 29.0 35.4 0.00 0.00 0.00 55 1007.8
20260504201500 26 198 35.4 38.6 0.00 0.00 0.00 55 1007.8
20260504201030 26 173 19.3 38.6 0.00 0.00 0.00 55 1008.0
20260504200000 26 192 22.5 43.5 0.00 0.00 0.00 56 1008.1
20260504195500 26 209 33.8 38.6 0.00 0.00 0.00 56 1008.1
20260504195000 26 194 25.7 35.4 0.00 0.00 0.00 54 1008.5
20260504194000 26 221 35.4 37.0 0.00 0.00 0.00 56 1008.6
20260504193530 25 189 17.7 37.0 0.00 0.00 0.00 56 1008.7
20260504193030 26 212 24.1 45.1 0.00 0.00 0.00 56 1008.7
20260504192530 26 218 22.5 45.1 0.00 0.00 0.00 57 1009.0
20260504192000 25 199 19.3 33.8 0.00 0.00 0.00 56 1008.8
20260504191500 25 194 25.7 33.8 0.00 0.00 0.00 57 1008.8
20260504191030 25 192 16.1 40.2 0.00 0.00 0.00 58 1008.9
20260504190531 25 166 30.6 40.2 0.00 0.00 0.00 56 1009.0
20260504190001 25 165 20.9 32.2 0.00 0.00 0.00 58 1009.2
20260504185500 25 165 32.2 40.2 0.00 0.00 0.00 56 1009.3
20260504185030 25 186 17.7 48.3 0.00 0.00 0.00 58 1009.6
20260504184500 25 179 19.3 48.3 0.00 0.00 0.00 58 1009.4
20260504184000 25 184 25.7 35.4 0.00 0.00 0.00 56 1009.4
20260504183501 25 199 25.7 35.4 0.00 0.00 0.00 57 1009.6
20260504183001 25 170 16.1 43.5 0.00 0.00 0.00 58 1009.8
20260504182500 24 210 22.5 43.5 0.00 0.00 0.00 59 1009.8
20260504182000 25 206 24.1 41.8 0.00 0.00 0.00 58 1009.8
20260504181500 24 193 30.6 49.9 0.00 0.00 0.00 57 1009.9
20260504181002 24 220 46.7 49.9 0.00 0.00 0.00 58 1009.9
20260504180501 23 196 22.5 45.1 0.00 0.00 0.00 58 1010.1
20260504180000 23 203 22.5 40.2 0.00 0.00 0.00 60 1010.2
20260504175000 23 196 29.0 38.6 0.00 0.00 0.00 58 1010.4
20260504174501 23 197 24.1 38.6 0.00 0.00 0.00 59 1010.5
20260504173501 23 0 0.0 37.0 0.00 0.00 0.00 59 1010.4
20260504173000 23 185 22.5 32.2 0.00 0.00 0.00 61 1010.4
20260504172503 23 178 17.7 43.5 0.00 0.00 0.00 60 1010.6
20260504172000 23 202 20.9 43.5 0.00 0.00 0.00 60 1010.6
20260504171500 22 204 30.6 37.0 0.00 0.00 0.00 61 1010.7
20260504171000 22 212 30.6 37.0 0.00 0.00 0.00 62 1010.7
20260504170501 22 190 25.7 37.0 0.00 0.00 0.00 62 1010.8
20260504151030 21 210 33.8 40.2 0.00 0.00 0.00 62 1011.9
20260504150531 21 197 17.7 37.0 0.00 0.00 0.00 62 1012.0
20260504141000 19 202 17.7 33.8 0.00 0.00 0.00 70 1012.3
20260504140500 19 197 20.9 33.8 0.00 0.00 0.00 69 1012.2
20260504100501 16 186 6.4 20.9 0.00 0.00 0.00 70 1012.6
20260504081501 15 162 9.7 11.3 0.00 0.00 0.00 71 1013.2
20260504081001 15 186 9.7 9.7 0.00 0.00 0.00 71 1013.3
20260504080501 15 184 8.0 9.7 0.00 0.00 0.00 71 1013.3
20260504050502 17 196 6.4 9.7 0.00 0.00 0.00 61 1015.3
20260504050002 17 196 8.0 9.7 0.00 0.00 0.00 60 1015.3
20260504045002 17 196 6.4 11.3 0.00 0.00 0.00 60 1015.4
20260504044501 17 208 9.7 12.9 0.00 0.00 0.00 60 1015.4
20260504044001 17 213 9.7 12.9 0.00 0.00 0.00 59 1015.4
20260504043501 17 200 9.7 11.3 0.00 0.00 0.00 59 1015.5
20260504042501 17 204 8.0 9.7 0.00 0.00 0.00 58 1015.6
20260504042001 17 189 4.8 9.7 0.00 0.00 0.00 58 1015.6
20260504041001 17 203 6.4 9.7 0.00 0.00 0.00 57 1015.7
20260504040501 17 189 4.8 8.0 0.00 0.00 0.00 57 1015.7
20260504040031 18 195 4.8 11.3 0.00 0.00 0.00 56 1015.8
20260504035501 18 190 4.8 11.3 0.00 0.00 0.00 56 1015.8
20260504035001 18 189 6.4 8.0 0.00 0.00 0.00 56 1015.7
20260504034531 18 188 4.8 8.0 0.00 0.00 0.00 56 1015.7
20260504034001 18 177 4.8 8.0 0.00 0.00 0.00 56 1015.6
20260504033501 18 167 6.4 8.0 0.00 0.00 0.00 56 1015.6
20260504032531 18 184 4.8 8.0 0.00 0.00 0.00 56 1015.5
20260504032001 18 169 6.4 8.0 0.00 0.00 0.00 56 1015.5
20260504031501 18 165 6.4 8.0 0.00 0.00 0.00 55 1015.5
20260504031001 18 181 4.8 8.0 0.00 0.00 0.00 55 1015.5
20260504030532 18 171 6.4 8.0 0.00 0.00 0.00 54 1015.6
20260504030005 18 169 6.4 8.0 0.00 0.00 0.00 54 1015.5
20260504025533 18 177 4.8 8.0 0.00 0.00 0.00 53 1015.4
20260504025031 18 179 4.8 9.7 0.00 0.00 0.00 53 1015.4
20260504024501 18 155 6.4 9.7 0.00 0.00 0.00 53 1015.4
20260504024001 19 151 8.0 11.3 0.00 0.00 0.00 52 1015.3
20260504023501 19 157 8.0 11.3 0.00 0.00 0.00 52 1015.3
20260504023001 19 153 8.0 11.3 0.00 0.00 0.00 52 1015.3
20260504022501 19 143 9.7 11.3 0.00 0.00 0.00 51 1015.3
20260504022001 20 142 11.3 11.3 0.00 0.00 0.00 51 1015.3
20260504021501 20 153 8.0 14.5 0.00 0.00 0.00 50 1015.3
20260504021001 20 142 9.7 14.5 0.00 0.00 0.00 50 1015.3
20260504015501 20 149 9.7 12.9 0.00 0.00 0.00 49 1015.2
20260504015001 20 148 9.7 11.3 0.00 0.00 0.00 49 1015.2
20260504014501 20 148 8.0 11.3 0.00 0.00 0.00 48 1015.2
20260504014001 20 157 11.3 11.3 0.00 0.00 0.00 47 1015.1
20260504013501 21 149 9.7 11.3 0.00 0.00 0.00 47 1015.1
20260504011501 22 175 8.0 11.3 0.00 0.00 0.00 42 1014.9
20260504011002 22 180 8.0 12.9 0.00 0.00 0.00 42 1014.9
20260504010501 22 187 9.7 14.5 0.00 0.00 0.00 41 1014.9
20260504005001 23 186 9.7 12.9 0.00 0.00 0.00 39 1014.8
20260504004501 23 163 6.4 14.5 0.00 0.00 0.00 39 1014.8
20260504004001 23 197 11.3 16.1 0.00 0.00 0.00 38 1014.8
20260504003501 23 186 11.3 16.1 0.00 0.00 0.00 37 1014.8
20260504003001 24 205 14.5 16.1 0.00 0.00 0.00 36 1014.9
20260504002001 25 200 14.5 20.9 0.00 0.00 0.00 34 1014.8
20260504001501 25 203 19.3 20.9 0.00 0.00 0.00 34 1014.9
20260504001001 25 204 16.1 20.9 0.00 0.00 0.00 33 1015.0
20260504000501 25 203 12.9 20.9 0.00 0.00 0.00 34 1015.0
20260504000001 25 202 16.1 20.9 0.00 0.00 0.00 34 1015.0
20260503235002 25 205 11.3 27.4 0.00 0.00 0.00 35 1015.1
20260503234001 25 208 19.3 27.4 0.00 0.00 0.00 32 1015.0
20260503233501 26 200 19.3 27.4 0.00 0.00 0.00 32 1015.2
20260503233001 26 200 17.7 27.4 0.00 0.00 0.00 33 1015.2
20260503231501 26 208 16.1 25.7 0.00 0.00 0.00 32 1015.3
20260503231001 26 189 20.9 20.9 0.00 0.00 0.00 31 1015.3
20260503230501 26 205 16.1 25.7 0.00 0.00 0.00 31 1015.3
20260503230001 26 189 19.3 30.6 0.00 0.00 0.00 30 1015.3
20260503225501 26 214 25.7 30.6 0.00 0.00 0.00 31 1015.3
20260503225001 26 205 16.1 29.0 0.00 0.00 0.00 31 1015.4
20260503224531 26 197 25.7 30.6 0.00 0.00 0.00 29 1015.3
20260503224003 26 199 22.5 30.6 0.00 0.00 0.00 30 1015.4
20260503223031 26 193 17.7 32.2 0.00 0.00 0.00 31 1015.5
20260503222531 26 195 14.5 32.2 0.00 0.00 0.00 31 1015.5
20260503222001 26 203 20.9 30.6 0.00 0.00 0.00 30 1015.5
20260503221502 26 226 22.5 27.4 0.00 0.00 0.00 31 1015.5